| time (UTC) | temp C | wind direction | speed KPH | gust KPH | rain 1hr cm | rain 24hr cm | rain mn cm | humidity % | barometer mb |
| 20260507015757 | 25 | 96 | 3.2 | 6.4 | 0.00 | 0.00 | 0.00 | 21 | 1017.8 |
| 20260507015254 | 25 | 61 | 0.0 | 4.8 | 0.00 | 0.00 | 0.00 | 21 | 1017.6 |
| 20260507014751 | 25 | 48 | 3.2 | 6.4 | 0.00 | 0.00 | 0.00 | 20 | 1018.0 |
| 20260507014247 | 26 | 350 | 0.0 | 4.8 | 0.00 | 0.00 | 0.00 | 19 | 1018.0 |
| 20260507013744 | 27 | 270 | 4.8 | 4.8 | 0.00 | 0.00 | 0.00 | 18 | 1017.8 |
| 20260507013241 | 27 | 266 | 4.8 | 4.8 | 0.00 | 0.00 | 0.00 | 17 | 1017.6 |
| 20260507012738 | 27 | 32 | 3.2 | 4.8 | 0.00 | 0.00 | 0.00 | 18 | 1017.7 |
| 20260507012233 | 27 | 59 | 3.2 | 6.4 | 0.00 | 0.00 | 0.00 | 18 | 1017.8 |
| 20260507011731 | 26 | 15 | 3.2 | 6.4 | 0.00 | 0.00 | 0.00 | 18 | 1017.7 |
| 20260507011228 | 26 | 68 | 6.4 | 6.4 | 0.00 | 0.00 | 0.00 | 19 | 1017.7 |
| 20260507010722 | 26 | 348 | 1.6 | 8.0 | 0.00 | 0.00 | 0.00 | 19 | 1017.7 |
| 20260507010218 | 26 | 6 | 6.4 | 11.3 | 0.00 | 0.00 | 0.00 | 18 | 1017.7 |
| 20260507005716 | 26 | 311 | 3.2 | 9.7 | 0.00 | 0.00 | 0.00 | 18 | 1017.6 |
| 20260507005212 | 27 | 0 | 0.0 | 6.4 | 0.00 | 0.00 | 0.00 | 17 | 1017.7 |
| 20260507004708 | 27 | 29 | 0.0 | 4.8 | 0.00 | 0.00 | 0.00 | 18 | 1017.6 |
| 20260507004206 | 27 | 85 | 0.0 | 4.8 | 0.00 | 0.00 | 0.00 | 18 | 1017.5 |
| 20260507003702 | 27 | 74 | 1.6 | 6.4 | 0.00 | 0.00 | 0.00 | 17 | 1017.6 |
| 20260507003157 | 27 | 270 | 0.0 | 3.2 | 0.00 | 0.00 | 0.00 | 18 | 1017.7 |
| 20260507002654 | 27 | 270 | 6.4 | 6.4 | 0.00 | 0.00 | 0.00 | 19 | 1017.6 |
| 20260507002150 | 27 | 270 | 3.2 | 12.9 | 0.00 | 0.00 | 0.00 | 19 | 1017.6 |
| 20260507001647 | 27 | 255 | 4.8 | 9.7 | 0.00 | 0.00 | 0.00 | 20 | 1017.8 |
| 20260507001144 | 26 | 274 | 3.2 | 8.0 | 0.00 | 0.00 | 0.00 | 21 | 1017.4 |
| 20260507000641 | 26 | 253 | 9.7 | 14.5 | 0.00 | 0.00 | 0.00 | 20 | 1017.5 |
| 20260507000136 | 26 | 281 | 9.7 | 14.5 | 0.00 | 0.00 | 0.00 | 19 | 1017.4 |
| 20260506235634 | 27 | 253 | 9.7 | 16.1 | 0.00 | 0.00 | 0.00 | 20 | 1017.2 |
| 20260506235134 | 27 | 305 | 11.3 | 19.3 | 0.00 | 0.00 | 0.00 | 20 | 1017.6 |
| 20260506234631 | 27 | 248 | 6.4 | 11.3 | 0.00 | 0.00 | 0.00 | 20 | 1017.4 |
| 20260506234128 | 27 | 258 | 4.8 | 14.5 | 0.00 | 0.00 | 0.00 | 20 | 1017.4 |
| 20260506233625 | 27 | 233 | 6.4 | 9.7 | 0.00 | 0.00 | 0.00 | 20 | 1017.5 |
| 20260506233122 | 27 | 300 | 1.6 | 8.0 | 0.00 | 0.00 | 0.00 | 20 | 1017.5 |
| 20260506232618 | 27 | 215 | 4.8 | 11.3 | 0.00 | 0.00 | 0.00 | 21 | 1017.7 |
| 20260506232114 | 27 | 285 | 4.8 | 9.7 | 0.00 | 0.00 | 0.00 | 20 | 1017.7 |
| 20260506231611 | 27 | 258 | 3.2 | 11.3 | 0.00 | 0.00 | 0.00 | 19 | 1017.8 |
| 20260506231109 | 27 | 282 | 3.2 | 9.7 | 0.00 | 0.00 | 0.00 | 20 | 1017.7 |
| 20260506230606 | 27 | 258 | 9.7 | 14.5 | 0.00 | 0.00 | 0.00 | 21 | 1017.8 |
| 20260506230103 | 27 | 307 | 9.7 | 9.7 | 0.00 | 0.00 | 0.00 | 21 | 1017.7 |
| 20260506225559 | 27 | 242 | 9.7 | 9.7 | 0.00 | 0.00 | 0.00 | 21 | 1017.8 |
| 20260506225056 | 27 | 235 | 8.0 | 16.1 | 0.00 | 0.00 | 0.00 | 21 | 1017.8 |
| 20260506224553 | 27 | 259 | 9.7 | 14.5 | 0.00 | 0.00 | 0.00 | 21 | 1018.0 |
| 20260506224049 | 27 | 280 | 6.4 | 14.5 | 0.00 | 0.00 | 0.00 | 21 | 1018.0 |
| 20260506223545 | 27 | 249 | 11.3 | 16.1 | 0.00 | 0.00 | 0.00 | 21 | 1018.0 |
| 20260506223042 | 27 | 213 | 4.8 | 8.0 | 0.00 | 0.00 | 0.00 | 22 | 1018.0 |
| 20260506222539 | 27 | 260 | 3.2 | 9.7 | 0.00 | 0.00 | 0.00 | 21 | 1018.2 |
| 20260506222035 | 27 | 221 | 3.2 | 11.3 | 0.00 | 0.00 | 0.00 | 21 | 1018.1 |
| 20260506221533 | 27 | 250 | 9.7 | 19.3 | 0.00 | 0.00 | 0.00 | 21 | 1018.3 |
| 20260506221031 | 27 | 244 | 11.3 | 20.9 | 0.00 | 0.00 | 0.00 | 21 | 1018.4 |
| 20260506220526 | 27 | 267 | 6.4 | 17.7 | 0.00 | 0.00 | 0.00 | 21 | 1018.5 |
| 20260506220022 | 27 | 246 | 4.8 | 22.5 | 0.00 | 0.00 | 0.00 | 20 | 1018.6 |
| 20260506215519 | 27 | 167 | 4.8 | 16.1 | 0.00 | 0.00 | 0.00 | 21 | 1018.7 |
| 20260506215015 | 27 | 283 | 8.0 | 11.3 | 0.00 | 0.00 | 0.00 | 21 | 1018.6 |
| 20260506214512 | 26 | 248 | 11.3 | 11.3 | 0.00 | 0.00 | 0.00 | 22 | 1018.7 |
| 20260506214009 | 26 | 101 | 3.2 | 12.9 | 0.00 | 0.00 | 0.00 | 22 | 1018.6 |
| 20260506213507 | 26 | 124 | 6.4 | 14.5 | 0.00 | 0.00 | 0.00 | 23 | 1018.8 |
| 20260506213003 | 26 | 78 | 9.7 | 17.7 | 0.00 | 0.00 | 0.00 | 22 | 1018.7 |
| 20260506212459 | 26 | 180 | 8.0 | 17.7 | 0.00 | 0.00 | 0.00 | 22 | 1019.0 |
| 20260506211949 | 26 | 129 | 14.5 | 19.3 | 0.00 | 0.00 | 0.00 | 22 | 1019.0 |
| 20260506211445 | 26 | 168 | 3.2 | 12.9 | 0.00 | 0.00 | 0.00 | 23 | 1019.3 |
| 20260506210943 | 26 | 139 | 9.7 | 14.5 | 0.00 | 0.00 | 0.00 | 22 | 1019.1 |
| 20260506210439 | 26 | 290 | 0.0 | 24.1 | 0.00 | 0.00 | 0.00 | 22 | 1019.1 |
| 20260506205936 | 26 | 105 | 0.0 | 11.3 | 0.00 | 0.00 | 0.00 | 23 | 1019.1 |
| 20260506205432 | 26 | 239 | 4.8 | 9.7 | 0.00 | 0.00 | 0.00 | 22 | 1019.1 |
| 20260506204928 | 25 | 288 | 8.0 | 16.1 | 0.00 | 0.00 | 0.00 | 22 | 1019.2 |
| 20260506204427 | 25 | 180 | 1.6 | 12.9 | 0.00 | 0.00 | 0.00 | 23 | 1019.4 |
| 20260506203924 | 25 | 26 | 4.8 | 14.5 | 0.00 | 0.00 | 0.00 | 24 | 1019.4 |
| 20260506203421 | 25 | 54 | 9.7 | 14.5 | 0.00 | 0.00 | 0.00 | 24 | 1019.5 |
| 20260506202918 | 25 | 26 | 14.5 | 16.1 | 0.00 | 0.00 | 0.00 | 24 | 1019.3 |
| 20260506202415 | 25 | 71 | 8.0 | 16.1 | 0.00 | 0.00 | 0.00 | 23 | 1019.2 |
| 20260506201911 | 25 | 114 | 14.5 | 20.9 | 0.00 | 0.00 | 0.00 | 24 | 1019.1 |
| 20260506201409 | 26 | 71 | 6.4 | 11.3 | 0.00 | 0.00 | 0.00 | 23 | 1019.3 |
| 20260506200905 | 25 | 270 | 1.6 | 3.2 | 0.00 | 0.00 | 0.00 | 23 | 1019.6 |
| 20260506200401 | 26 | 249 | 9.7 | 16.1 | 0.00 | 0.00 | 0.00 | 23 | 1019.4 |
| 20260506195858 | 26 | 165 | 8.0 | 20.9 | 0.00 | 0.00 | 0.00 | 23 | 1019.6 |
| 20260506195355 | 25 | 145 | 4.8 | 11.3 | 0.00 | 0.00 | 0.00 | 24 | 1019.6 |
| 20260506194852 | 25 | 186 | 8.0 | 14.5 | 0.00 | 0.00 | 0.00 | 24 | 1019.6 |
| 20260506194349 | 25 | 225 | 6.4 | 11.3 | 0.00 | 0.00 | 0.00 | 24 | 1019.6 |
| 20260506193846 | 25 | 166 | 3.2 | 16.1 | 0.00 | 0.00 | 0.00 | 25 | 1019.6 |
| 20260506193343 | 24 | 130 | 9.7 | 16.1 | 0.00 | 0.00 | 0.00 | 24 | 1019.8 |
| 20260506192839 | 24 | 184 | 6.4 | 9.7 | 0.00 | 0.00 | 0.00 | 24 | 1019.8 |
| 20260506192336 | 25 | 182 | 6.4 | 16.1 | 0.00 | 0.00 | 0.00 | 25 | 1019.8 |
| 20260506191833 | 24 | 173 | 8.0 | 11.3 | 0.00 | 0.00 | 0.00 | 25 | 1020.2 |
| 20260506191329 | 24 | 233 | 8.0 | 14.5 | 0.00 | 0.00 | 0.00 | 25 | 1020.2 |
| 20260506190826 | 24 | 248 | 3.2 | 9.7 | 0.00 | 0.00 | 0.00 | 25 | 1020.2 |
| 20260506190323 | 23 | 180 | 8.0 | 19.3 | 0.00 | 0.00 | 0.00 | 25 | 1020.1 |
| 20260506185820 | 23 | 158 | 9.7 | 16.1 | 0.00 | 0.00 | 0.00 | 26 | 1020.2 |
| 20260506185317 | 23 | 226 | 9.7 | 16.1 | 0.00 | 0.00 | 0.00 | 25 | 1020.2 |
| 20260506184814 | 23 | 207 | 6.4 | 17.7 | 0.00 | 0.00 | 0.00 | 26 | 1020.4 |
| 20260506184311 | 23 | 227 | 9.7 | 19.3 | 0.00 | 0.00 | 0.00 | 26 | 1020.3 |
| 20260506183808 | 23 | 184 | 8.0 | 17.7 | 0.00 | 0.00 | 0.00 | 25 | 1020.4 |
| 20260506183303 | 23 | 175 | 14.5 | 16.1 | 0.00 | 0.00 | 0.00 | 26 | 1020.5 |
| 20260506182801 | 23 | 251 | 4.8 | 25.7 | 0.00 | 0.00 | 0.00 | 26 | 1020.6 |
| 20260506182257 | 23 | 220 | 4.8 | 14.5 | 0.00 | 0.00 | 0.00 | 26 | 1020.4 |
| 20260506181755 | 22 | 216 | 3.2 | 30.6 | 0.00 | 0.00 | 0.00 | 26 | 1020.6 |
| 20260506181253 | 22 | 244 | 14.5 | 16.1 | 0.00 | 0.00 | 0.00 | 27 | 1020.4 |
| 20260506180750 | 22 | 199 | 9.7 | 16.1 | 0.00 | 0.00 | 0.00 | 26 | 1020.5 |
| 20260506180246 | 22 | 238 | 11.3 | 20.9 | 0.00 | 0.00 | 0.00 | 27 | 1020.5 |
| 20260506175742 | 22 | 188 | 9.7 | 16.1 | 0.00 | 0.00 | 0.00 | 27 | 1020.6 |
| 20260506175239 | 22 | 232 | 9.7 | 20.9 | 0.00 | 0.00 | 0.00 | 27 | 1020.3 |
| 20260506174737 | 22 | 233 | 8.0 | 16.1 | 0.00 | 0.00 | 0.00 | 28 | 1020.5 |
| 20260506174233 | 21 | 163 | 11.3 | 25.7 | 0.00 | 0.00 | 0.00 | 28 | 1020.6 |
| 20260506173732 | 21 | 199 | 6.4 | 14.5 | 0.00 | 0.00 | 0.00 | 28 | 1020.3 |
| 20260506173228 | 21 | 225 | 8.0 | 20.9 | 0.00 | 0.00 | 0.00 | 28 | 1020.6 |
| 20260506172724 | 21 | 203 | 6.4 | 17.7 | 0.00 | 0.00 | 0.00 | 28 | 1020.4 |
| 20260506172220 | 21 | 248 | 16.1 | 19.3 | 0.00 | 0.00 | 0.00 | 29 | 1020.5 |
| 20260506171718 | 21 | 224 | 16.1 | 19.3 | 0.00 | 0.00 | 0.00 | 28 | 1020.3 |
| 20260506171216 | 21 | 245 | 3.2 | 20.9 | 0.00 | 0.00 | 0.00 | 28 | 1020.5 |
| 20260506170713 | 21 | 264 | 8.0 | 14.5 | 0.00 | 0.00 | 0.00 | 29 | 1020.3 |
| 20260506170210 | 21 | 225 | 14.5 | 17.7 | 0.00 | 0.00 | 0.00 | 29 | 1020.3 |
| 20260506165708 | 21 | 227 | 9.7 | 19.3 | 0.00 | 0.00 | 0.00 | 29 | 1020.3 |
| 20260506165205 | 20 | 259 | 16.1 | 19.3 | 0.00 | 0.00 | 0.00 | 30 | 1020.4 |
| 20260506164702 | 20 | 228 | 8.0 | 20.9 | 0.00 | 0.00 | 0.00 | 29 | 1020.2 |
| 20260506164159 | 20 | 239 | 8.0 | 12.9 | 0.00 | 0.00 | 0.00 | 31 | 1020.4 |
| 20260506163655 | 20 | 169 | 3.2 | 17.7 | 0.00 | 0.00 | 0.00 | 30 | 1020.3 |
| 20260506163150 | 20 | 185 | 9.7 | 14.5 | 0.00 | 0.00 | 0.00 | 31 | 1020.2 |
| 20260506162647 | 20 | 203 | 9.7 | 11.3 | 0.00 | 0.00 | 0.00 | 31 | 1020.5 |
| 20260506162144 | 20 | 166 | 9.7 | 17.7 | 0.00 | 0.00 | 0.00 | 31 | 1019.9 |
| 20260506161641 | 20 | 167 | 4.8 | 16.1 | 0.00 | 0.00 | 0.00 | 31 | 1020.3 |
| 20260506161138 | 19 | 241 | 12.9 | 14.5 | 0.00 | 0.00 | 0.00 | 32 | 1020.2 |
| 20260506160636 | 19 | 198 | 4.8 | 16.1 | 0.00 | 0.00 | 0.00 | 32 | 1020.1 |
| 20260506160132 | 19 | 195 | 3.2 | 11.3 | 0.00 | 0.00 | 0.00 | 32 | 1020.2 |
| 20260506155631 | 18 | 172 | 8.0 | 14.5 | 0.00 | 0.00 | 0.00 | 32 | 1020.1 |
| 20260506155128 | 18 | 122 | 4.8 | 11.3 | 0.00 | 0.00 | 0.00 | 34 | 1020.2 |
| 20260506153230 | 18 | 206 | 6.4 | 9.7 | 0.00 | 0.00 | 0.00 | 34 | 1020.2 |
| 20260506152727 | 18 | 129 | 9.7 | 12.9 | 0.00 | 0.00 | 0.00 | 34 | 1020.3 |
| 20260506152225 | 17 | 146 | 0.0 | 9.7 | 0.00 | 0.00 | 0.00 | 36 | 1020.1 |
| 20260506151724 | 17 | 255 | 3.2 | 9.7 | 0.00 | 0.00 | 0.00 | 36 | 1019.9 |
| 20260506151220 | 17 | 202 | 8.0 | 12.9 | 0.00 | 0.00 | 0.00 | 36 | 1019.9 |
| 20260506150716 | 17 | 183 | 4.8 | 11.3 | 0.00 | 0.00 | 0.00 | 36 | 1019.8 |
| 20260506150213 | 17 | 140 | 8.0 | 9.7 | 0.00 | 0.00 | 0.00 | 36 | 1020.1 |
| 20260506145710 | 16 | 192 | 4.8 | 11.3 | 0.00 | 0.00 | 0.00 | 37 | 1020.2 |
| 20260506145207 | 16 | 178 | 9.7 | 12.9 | 0.00 | 0.00 | 0.00 | 37 | 1019.9 |
| 20260506144705 | 16 | 239 | 3.2 | 9.7 | 0.00 | 0.00 | 0.00 | 37 | 1020.1 |
| 20260506144201 | 16 | 200 | 8.0 | 9.7 | 0.00 | 0.00 | 0.00 | 37 | 1020.1 |
| 20260506143659 | 16 | 173 | 4.8 | 11.3 | 0.00 | 0.00 | 0.00 | 38 | 1019.6 |
| 20260506143157 | 16 | 242 | 6.4 | 9.7 | 0.00 | 0.00 | 0.00 | 38 | 1020.1 |
| 20260506142655 | 16 | 252 | 3.2 | 6.4 | 0.00 | 0.00 | 0.00 | 39 | 1019.7 |
| 20260506142152 | 15 | 165 | 4.8 | 11.3 | 0.00 | 0.00 | 0.00 | 39 | 1019.7 |
| 20260506141650 | 15 | 187 | 3.2 | 4.8 | 0.00 | 0.00 | 0.00 | 40 | 1019.9 |
| 20260506141148 | 15 | 138 | 4.8 | 8.0 | 0.00 | 0.00 | 0.00 | 39 | 1019.6 |
| 20260506140645 | 16 | 151 | 4.8 | 8.0 | 0.00 | 0.00 | 0.00 | 39 | 1019.7 |
| 20260506140142 | 17 | 107 | 4.8 | 8.0 | 0.00 | 0.00 | 0.00 | 37 | 1019.5 |
| 20260506135639 | 16 | 114 | 0.0 | 6.4 | 0.00 | 0.00 | 0.00 | 38 | 1019.5 |
| 20260506135135 | 16 | 119 | 0.0 | 6.4 | 0.00 | 0.00 | 0.00 | 39 | 1019.5 |
| 20260506134632 | 15 | 112 | 4.8 | 6.4 | 0.00 | 0.00 | 0.00 | 39 | 1019.2 |
| 20260506134128 | 15 | 150 | 3.2 | 8.0 | 0.00 | 0.00 | 0.00 | 40 | 1019.4 |
| 20260506133625 | 15 | 131 | 3.2 | 4.8 | 0.00 | 0.00 | 0.00 | 41 | 1019.2 |
| 20260506133122 | 14 | 116 | 4.8 | 4.8 | 0.00 | 0.00 | 0.00 | 42 | 1019.2 |
| 20260506132620 | 13 | 109 | 3.2 | 3.2 | 0.00 | 0.00 | 0.00 | 46 | 1019.2 |
| 20260506132116 | 11 | 109 | 3.2 | 4.8 | 0.00 | 0.00 | 0.00 | 48 | 1019.2 |
| 20260506131614 | 11 | 112 | 3.2 | 3.2 | 0.00 | 0.00 | 0.00 | 51 | 1019.1 |
| 20260506131110 | 10 | 106 | 3.2 | 3.2 | 0.00 | 0.00 | 0.00 | 52 | 1019.2 |
| 20260506130607 | 10 | 90 | 1.6 | 4.8 | 0.00 | 0.00 | 0.00 | 52 | 1019.0 |
| 20260506130105 | 10 | 95 | 3.2 | 3.2 | 0.00 | 0.00 | 0.00 | 52 | 1019.0 |
| 20260506125603 | 10 | 121 | 3.2 | 4.8 | 0.00 | 0.00 | 0.00 | 53 | 1018.8 |
| 20260506125100 | 9 | 96 | 3.2 | 3.2 | 0.00 | 0.00 | 0.00 | 54 | 1018.7 |
| 20260506124558 | 9 | 117 | 1.6 | 1.6 | 0.00 | 0.00 | 0.00 | 53 | 1018.8 |
| 20260506124055 | 10 | 106 | 0.0 | 0.0 | 0.00 | 0.00 | 0.00 | 52 | 1018.6 |
| 20260506123553 | 10 | 90 | 0.0 | 0.0 | 0.00 | 0.00 | 0.00 | 50 | 1018.5 |
| 20260506123051 | 10 | 126 | 0.0 | 1.6 | 0.00 | 0.00 | 0.00 | 50 | 1018.5 |
| 20260506122547 | 10 | 101 | 3.2 | 3.2 | 0.00 | 0.00 | 0.00 | 50 | 1018.6 |
| 20260506122046 | 11 | 114 | 0.0 | 3.2 | 0.00 | 0.00 | 0.00 | 49 | 1018.5 |
| 20260506121543 | 11 | 126 | 1.6 | 4.8 | 0.00 | 0.00 | 0.00 | 49 | 1018.6 |
| 20260506121039 | 11 | 238 | 4.8 | 4.8 | 0.00 | 0.00 | 0.00 | 48 | 1018.4 |
| 20260506120537 | 11 | 270 | 1.6 | 3.2 | 0.00 | 0.00 | 0.00 | 48 | 1018.5 |
| 20260506120034 | 11 | 209 | 0.0 | 3.2 | 0.00 | 0.00 | 0.00 | 48 | 1018.5 |
| 20260506115532 | 11 | 270 | 3.2 | 4.8 | 0.00 | 0.00 | 0.00 | 48 | 1018.5 |
| 20260506115030 | 11 | 247 | 4.8 | 6.4 | 0.00 | 0.00 | 0.00 | 47 | 1018.2 |
| 20260506114527 | 11 | 270 | 3.2 | 4.8 | 0.00 | 0.00 | 0.00 | 48 | 1018.4 |
| 20260506114026 | 11 | 255 | 4.8 | 9.7 | 0.00 | 0.00 | 0.00 | 47 | 1018.4 |
| 20260506113523 | 11 | 293 | 4.8 | 4.8 | 0.00 | 0.00 | 0.00 | 47 | 1018.5 |
| 20260506113020 | 11 | 243 | 4.8 | 6.4 | 0.00 | 0.00 | 0.00 | 47 | 1018.5 |
| 20260506112517 | 11 | 252 | 0.0 | 8.0 | 0.00 | 0.00 | 0.00 | 47 | 1018.5 |
| 20260506112014 | 11 | 227 | 4.8 | 8.0 | 0.00 | 0.00 | 0.00 | 47 | 1018.5 |
| 20260506111512 | 11 | 232 | 4.8 | 8.0 | 0.00 | 0.00 | 0.00 | 47 | 1018.4 |
| 20260506111009 | 11 | 247 | 4.8 | 9.7 | 0.00 | 0.00 | 0.00 | 47 | 1018.3 |
| 20260506110507 | 11 | 278 | 1.6 | 9.7 | 0.00 | 0.00 | 0.00 | 47 | 1018.2 |
| 20260506110004 | 11 | 251 | 4.8 | 9.7 | 0.00 | 0.00 | 0.00 | 47 | 1018.1 |
| 20260506105459 | 11 | 246 | 4.8 | 8.0 | 0.00 | 0.00 | 0.00 | 47 | 1018.2 |
| 20260506104957 | 11 | 254 | 3.2 | 8.0 | 0.00 | 0.00 | 0.00 | 47 | 1018.1 |
| 20260506104455 | 11 | 240 | 4.8 | 8.0 | 0.00 | 0.00 | 0.00 | 47 | 1018.1 |
| 20260506103953 | 11 | 219 | 8.0 | 11.3 | 0.00 | 0.00 | 0.00 | 47 | 1018.0 |
| 20260506103450 | 11 | 240 | 4.8 | 6.4 | 0.00 | 0.00 | 0.00 | 47 | 1018.0 |
| 20260506102946 | 11 | 232 | 3.2 | 4.8 | 0.00 | 0.00 | 0.00 | 47 | 1018.2 |
| 20260506102445 | 11 | 249 | 0.0 | 4.8 | 0.00 | 0.00 | 0.00 | 47 | 1018.1 |
| 20260506101942 | 12 | 260 | 0.0 | 6.4 | 0.00 | 0.00 | 0.00 | 47 | 1018.0 |
| 20260506101438 | 12 | 265 | 3.2 | 4.8 | 0.00 | 0.00 | 0.00 | 46 | 1017.8 |
| 20260506100935 | 12 | 180 | 0.0 | 6.4 | 0.00 | 0.00 | 0.00 | 46 | 1017.8 |
| 20260506100434 | 12 | 264 | 3.2 | 8.0 | 0.00 | 0.00 | 0.00 | 46 | 1018.0 |
| 20260506095931 | 12 | 232 | 3.2 | 8.0 | 0.00 | 0.00 | 0.00 | 47 | 1017.8 |
| 20260506095430 | 12 | 231 | 3.2 | 8.0 | 0.00 | 0.00 | 0.00 | 46 | 1017.8 |
| 20260506094925 | 12 | 221 | 0.0 | 6.4 | 0.00 | 0.00 | 0.00 | 46 | 1017.7 |
| 20260506094424 | 12 | 201 | 4.8 | 4.8 | 0.00 | 0.00 | 0.00 | 46 | 1017.7 |
| 20260506093921 | 12 | 221 | 3.2 | 4.8 | 0.00 | 0.00 | 0.00 | 46 | 1018.0 |
| 20260506093419 | 12 | 234 | 4.8 | 6.4 | 0.00 | 0.00 | 0.00 | 46 | 1017.5 |
| 20260506092917 | 12 | 214 | 6.4 | 6.4 | 0.00 | 0.00 | 0.00 | 46 | 1017.7 |
| 20260506092415 | 12 | 214 | 3.2 | 6.4 | 0.00 | 0.00 | 0.00 | 45 | 1017.7 |
| 20260506091911 | 12 | 247 | 3.2 | 8.0 | 0.00 | 0.00 | 0.00 | 45 | 1017.5 |
| 20260506091409 | 12 | 205 | 4.8 | 8.0 | 0.00 | 0.00 | 0.00 | 45 | 1017.7 |
| 20260506090906 | 12 | 229 | 3.2 | 8.0 | 0.00 | 0.00 | 0.00 | 45 | 1017.5 |
| 20260506090404 | 12 | 239 | 3.2 | 8.0 | 0.00 | 0.00 | 0.00 | 45 | 1017.5 |
| 20260506085900 | 12 | 246 | 9.7 | 9.7 | 0.00 | 0.00 | 0.00 | 45 | 1017.6 |
| 20260506085357 | 12 | 260 | 4.8 | 6.4 | 0.00 | 0.00 | 0.00 | 45 | 1017.3 |
| 20260506084853 | 12 | 248 | 6.4 | 11.3 | 0.00 | 0.00 | 0.00 | 45 | 1017.4 |
| 20260506084350 | 12 | 212 | 1.6 | 8.0 | 0.00 | 0.00 | 0.00 | 45 | 1017.6 |
| 20260506083846 | 12 | 265 | 3.2 | 6.4 | 0.00 | 0.00 | 0.00 | 45 | 1017.7 |
| 20260506083344 | 12 | 251 | 4.8 | 8.0 | 0.00 | 0.00 | 0.00 | 45 | 1017.7 |
| 20260506082841 | 12 | 239 | 3.2 | 9.7 | 0.00 | 0.00 | 0.00 | 45 | 1017.6 |
| 20260506082338 | 12 | 220 | 3.2 | 8.0 | 0.00 | 0.00 | 0.00 | 45 | 1017.4 |
| 20260506081833 | 12 | 270 | 3.2 | 4.8 | 0.00 | 0.00 | 0.00 | 45 | 1017.6 |
| 20260506081331 | 11 | 233 | 4.8 | 4.8 | 0.00 | 0.00 | 0.00 | 45 | 1017.5 |
| 20260506080829 | 11 | 198 | 0.0 | 4.8 | 0.00 | 0.00 | 0.00 | 45 | 1017.6 |
| 20260506080325 | 11 | 254 | 1.6 | 3.2 | 0.00 | 0.00 | 0.00 | 44 | 1017.6 |
| 20260506073310 | 12 | 203 | 0.0 | 3.2 | 0.00 | 0.00 | 0.00 | 43 | 1017.6 |
| 20260506072806 | 12 | 203 | 0.0 | 4.8 | 0.00 | 0.00 | 0.00 | 43 | 1017.4 |
| 20260506072305 | 12 | 270 | 0.0 | 3.2 | 0.00 | 0.00 | 0.00 | 42 | 1017.6 |
| 20260506071801 | 12 | 264 | 1.6 | 3.2 | 0.00 | 0.00 | 0.00 | 42 | 1017.4 |
| 20260506071259 | 12 | 254 | 1.6 | 4.8 | 0.00 | 0.00 | 0.00 | 42 | 1017.5 |
| 20260506070756 | 12 | 236 | 3.2 | 4.8 | 0.00 | 0.00 | 0.00 | 42 | 1017.3 |
| 20260506070253 | 12 | 249 | 0.0 | 4.8 | 0.00 | 0.00 | 0.00 | 40 | 1017.5 |
| 20260506062230 | 12 | 255 | 0.0 | 3.2 | 0.00 | 0.00 | 0.00 | 38 | 1017.2 |
| 20260506061725 | 12 | 261 | 0.0 | 3.2 | 0.00 | 0.00 | 0.00 | 38 | 1017.3 |
| 20260506061223 | 12 | 264 | 1.6 | 1.6 | 0.00 | 0.00 | 0.00 | 38 | 1017.1 |
| 20260506060722 | 12 | 195 | 0.0 | 0.0 | 0.00 | 0.00 | 0.00 | 38 | 1017.2 |
| 20260506060218 | 12 | 291 | 0.0 | 3.2 | 0.00 | 0.00 | 0.00 | 38 | 1017.1 |
| 20260506051150 | 12 | 261 | 0.0 | 3.2 | 0.00 | 0.00 | 0.00 | 36 | 1016.7 |
| 20260506050649 | 12 | 253 | 3.2 | 3.2 | 0.00 | 0.00 | 0.00 | 36 | 1016.7 |
| 20260506050145 | 12 | 258 | 0.0 | 3.2 | 0.00 | 0.00 | 0.00 | 36 | 1016.5 |
| 20260506044636 | 13 | 279 | 0.0 | 0.0 | 0.00 | 0.00 | 0.00 | 34 | 1016.3 |
| 20260506044133 | 13 | 261 | 0.0 | 0.0 | 0.00 | 0.00 | 0.00 | 33 | 1016.3 |
| 20260506043630 | 13 | 261 | 0.0 | 0.0 | 0.00 | 0.00 | 0.00 | 33 | 1016.5 |
| 20260506043128 | 14 | 243 | 0.0 | 1.6 | 0.00 | 0.00 | 0.00 | 33 | 1016.2 |
| 20260506042627 | 14 | 261 | 0.0 | 3.2 | 0.00 | 0.00 | 0.00 | 33 | 1016.5 |
| 20260506042125 | 14 | 191 | 0.0 | 1.6 | 0.00 | 0.00 | 0.00 | 33 | 1016.1 |
| 20260506041623 | 15 | 228 | 3.2 | 4.8 | 0.00 | 0.00 | 0.00 | 32 | 1016.4 |
| 20260506041119 | 15 | 254 | 3.2 | 4.8 | 0.00 | 0.00 | 0.00 | 32 | 1016.2 |
| 20260506040618 | 15 | 253 | 3.2 | 6.4 | 0.00 | 0.00 | 0.00 | 32 | 1016.1 |
| 20260506040114 | 15 | 238 | 4.8 | 6.4 | 0.00 | 0.00 | 0.00 | 32 | 1016.2 |
| 20260506035611 | 15 | 232 | 3.2 | 3.2 | 0.00 | 0.00 | 0.00 | 31 | 1016.0 |
| 20260506035107 | 15 | 270 | 1.6 | 4.8 | 0.00 | 0.00 | 0.00 | 31 | 1015.9 |
| 20260506034605 | 15 | 229 | 3.2 | 4.8 | 0.00 | 0.00 | 0.00 | 31 | 1015.6 |
| 20260506034101 | 15 | 270 | 3.2 | 4.8 | 0.00 | 0.00 | 0.00 | 31 | 1015.7 |
| 20260506033559 | 15 | 201 | 0.0 | 8.0 | 0.00 | 0.00 | 0.00 | 31 | 1015.5 |
| 20260506033055 | 15 | 180 | 1.6 | 4.8 | 0.00 | 0.00 | 0.00 | 31 | 1015.5 |
| 20260506032553 | 15 | 225 | 3.2 | 4.8 | 0.00 | 0.00 | 0.00 | 31 | 1015.4 |
| 20260506032050 | 15 | 229 | 0.0 | 3.2 | 0.00 | 0.00 | 0.00 | 31 | 1015.4 |
| 20260506031547 | 15 | 209 | 1.6 | 4.8 | 0.00 | 0.00 | 0.00 | 30 | 1015.5 |
| 20260506031044 | 15 | 196 | 3.2 | 4.8 | 0.00 | 0.00 | 0.00 | 30 | 1015.5 |
| 20260506030542 | 16 | 208 | 3.2 | 4.8 | 0.00 | 0.00 | 0.00 | 30 | 1015.3 |
| 20260506030039 | 16 | 251 | 1.6 | 4.8 | 0.00 | 0.00 | 0.00 | 30 | 1015.0 |
| 20260506025536 | 16 | 262 | 1.6 | 4.8 | 0.00 | 0.00 | 0.00 | 30 | 1015.0 |
| 20260506025032 | 16 | 246 | 0.0 | 4.8 | 0.00 | 0.00 | 0.00 | 30 | 1014.8 |
| 20260506024529 | 16 | 213 | 3.2 | 4.8 | 0.00 | 0.00 | 0.00 | 30 | 1014.9 |
| 20260506024026 | 16 | 197 | 4.8 | 8.0 | 0.00 | 0.00 | 0.00 | 30 | 1014.9 |
| 20260506023521 | 16 | 264 | 1.6 | 4.8 | 0.00 | 0.00 | 0.00 | 30 | 1014.8 |
| 20260506023020 | 16 | 212 | 3.2 | 8.0 | 0.00 | 0.00 | 0.00 | 30 | 1014.5 |
| 20260506022517 | 16 | 221 | 3.2 | 6.4 | 0.00 | 0.00 | 0.00 | 30 | 1014.5 |
| 20260506022014 | 16 | 247 | 6.4 | 9.7 | 0.00 | 0.00 | 0.00 | 29 | 1014.5 |
| 20260506021511 | 17 | 197 | 4.8 | 11.3 | 0.00 | 0.00 | 0.00 | 29 | 1014.6 |
| 20260506021009 | 17 | 225 | 8.0 | 9.7 | 0.00 | 0.00 | 0.00 | 29 | 1014.6 |
| 20260506020506 | 17 | 250 | 3.2 | 17.7 | 0.00 | 0.00 | 0.00 | 29 | 1014.5 |
| 20260506020003 | 17 | 215 | 4.8 | 9.7 | 0.00 | 0.00 | 0.00 | 29 | 1014.1 |